Temperature
14 14 14 14 14 14 13 13 14 14 14 14 14 14 14 15 15 15 15 15 15 15 16 16 16 16 16 16 16 16 16 16 16 16 16 16 16 16
14 14 14 14 14 14 14 13 13 13 14 14 14 14 14 14 15 15 15 15 15 15 15 15 16 16 16 16 16 16 16 16 16 16 16 16 16 16
14 14 14 14 14 14 14 13 13 13 13 14 14 14 14 14 14 14 15 15 15 15 15 15 15 15 15 16 16 16 16 16 16 16 16 16 16 16
14 14 14 14 14 14 13 13 13 13 13 13 14 14 14 14 14 14 14 14 14 15 15 15 15 15 15 15 15 15 15 15 15 15 15 15 15 15
14 14 14 14 14 14 13 13 13 13 13 13 13 13 14 14 14 14 14 14 14 14 14 14 14 15 15 15 15 15 15 15 15 15 15 15 15 15
13 13 13 13 13 13 13 13 13 13 13 13 13 13 13 13 13 13 13 13 14 14 14 14 14 14 14 14 14 15 15 15 15 15 15 15 15 15
13 13 13 13 13 13 13 13 13 13 13 13 13 13 13 13 13 13 13 13 13 13 14 14 14 14 14 14 14 14 14 14 14 14 14 14 14 14
13 13 13 13 13 13 13 13 13 13 13 13 13 13 13 13 13 13 13 13 13 13 13 13 13 14 14 14 14 14 14 14 14 14 14 14 14 14
12 12 12 12 12 13 13 13 13 12 12 12 13 13 13 13 13 13 13 13 13 13 13 13 13 13 13 13 13 13 13 13 13 13 13 14 14 14
12 12 12 12 12 12 12 12 12 13 12 12 12 13 13 13 13 13 13 13 13 13 13 13 13 13 13 13 13 13 13 13 13 13 13 13 13 13
11 11 11 11 11 11 11 11 12 12 12 12 12 12 13 13 13 12 12 12 12 13 13 12 13 13 13 13 12 12 12 12 13 13 13 13 13 13
11 11 11 11 11 11 10 11 11 11 12 12 12 12 12 12 12 12 12 12 12 12 13 12 12 12 12 12 12 12 12 12 12 12 12 12 12 12
10 10 10 10 10 10 10 10 10 10 11 11 11 12 12 12 12 12 12 12 12 12 13 12 12 12 12 12 12 12 12 12 12 12 12 12 11 12
9 9 9 10 10 10 10 10 10 10 10 10 10 11 11 11 12 12 12 12 12 12 12 12 12 12 12 11 11 11 11 11 11 11 11 11 11 11
9 9 9 9 9 9 9 10 10 9 10 10 10 10 11 11 11 11 12 12 12 12 12 12 12 12 12 11 11 11 11 11 11 11 11 11 11 11
8 8 8 9 9 9 9 9 9 9 9 9 10 10 10 10 11 11 11 11 11 11 11 11 11 11 11 11 11 11 11 11 10 10 10 10 10 10
7 7 8 8 8 8 8 8 8 8 8 9 9 9 9 10 10 11 11 11 11 11 11 11 11 11 11 11 11 11 11 11 10 10 10 10 10 9
7 7 7 7 7 7 7 7 7 7 7 8 8 8 9 9 9 10 10 10 10 11 11 11 11 10 10 10 10 10 10 10 10 10 10 9 9 9
6 6 6 6 6 6 6 6 6 7 7 7 7 8 8 8 8 9 9 9 10 10 10 10 10 10 10 10 10 10 10 10 10 10 9 9 9 9
6 6 6 5 5 5 5 6 6 6 6 6 7 7 7 8 8 8 9 9 9 10 10 10 10 10 10 10 10 10 10 10 10 9 9 9 8 8
5 5 5 5 5 5 5 5 5 5 6 6 6 6 7 7 8 8 8 9 9 9 9 10 10 10 10 9 9 9 9 9 9 9 9 8 8 8
5 4 4 4 4 4 4 4 5 5 5 5 6 6 6 7 7 7 8 8 8 9 9 9 9 9 9 9 9 9 9 9 8 8 8 8 8 8
4 4 4 4 4 4 4 4 4 4 4 5 5 5 6 6 7 7 7 8 8 8 8 9 9 9 9 9 9 9 8 8 8 8 7 7 7 7
Wind_Speed
2 1 1 2 1 1 2 2 2 1 3 3 2 2 1 1 2 2 2 4 6 6 7 7 8 8 8 9 9 9 10 11 11 12 13 13 13 13
2 2 2 2 2 1 1 1 2 3 3 3 3 3 2 1 2 2 3 4 6 7 7 7 7 8 8 9 10 10 10 10 10 11 12 13 13 12
3 2 3 2 2 2 1 1 2 3 3 3 2 2 2 2 1 2 3 3 4 6 7 8 8 8 9 9 9 10 10 10 10 11 11 11 11 11
4 3 4 3 3 3 2 2 2 3 4 4 3 2 3 3 2 2 2 3 4 6 8 8 8 8 9 9 10 10 11 10 10 10 10 11 11 11
4 4 5 4 4 4 4 3 3 3 3 3 3 2 2 2 1 2 2 2 3 5 7 8 9 9 9 9 9 10 11 10 10 10 10 10 11 11
4 4 5 4 5 5 4 4 4 3 3 3 3 3 3 2 1 2 2 2 2 2 4 5 7 8 9 10 10 10 11 11 11 10 10 10 10 10
4 4 5 6 7 5 4 4 3 3 3 3 4 3 3 2 3 3 3 2 2 2 2 2 2 3 5 8 10 11 11 11 11 11 10 10 9 9
4 5 6 6 8 8 9 7 6 4 5 4 4 5 6 5 4 4 3 2 3 3 3 3 2 3 3 5 9 11 12 12 11 11 10 10 10 9
4 5 6 6 5 5 7 8 8 9 9 6 7 8 7 7 6 5 5 5 5 4 3 3 3 4 3 6 9 11 12 12 11 11 10 9 9 10
5 5 6 7 6 5 5 6 7 7 9 7 7 8 8 7 8 8 7 5 2 2 4 3 3 3 3 4 8 10 11 11 11 11 10 10 9 9
6 6 6 7 11 10 6 7 8 9 10 11 12 11 12 12 9 5 5 4 4 4 4 4 3 2 2 2 5 9 10 10 10 10 10 10 9 8
6 6 9 10 12 12 7 7 9 10 8 7 8 9 9 10 11 9 8 7 4 4 5 5 4 3 2 2 2 3 5 7 9 9 9 9 9 6
7 7 7 13 15 14 12 9 12 11 8 7 7 7 6 6 7 8 8 8 7 6 6 6 4 4 4 2 1 2 3 3 4 5 8 9 9 7
7 7 8 15 16 16 12 13 16 12 6 6 7 7 7 7 7 7 8 9 9 8 8 8 5 6 5 3 3 2 2 3 3 3 4 6 6 6
8 12 14 16 15 12 14 16 13 7 6 7 8 9 8 8 6 4 5 5 5 5 7 7 6 6 5 5 4 4 3 3 4 4 4 3 3 3
8 12 15 14 11 11 12 10 7 7 8 9 8 8 6 5 6 6 5 5 4 4 4 6 8 8 6 5 5 5 5 5 4 4 4 3 2 3
10 7 6 6 7 7 7 7 6 6 8 8 8 7 6 7 7 6 5 5 6 6 5 3 3 4 5 6 5 6 5 4 5 5 5 3 2 2
10 6 7 7 8 8 8 8 7 7 7 7 7 8 8 8 8 6 6 7 7 8 7 6 5 3 1 1 3 6 6 5 4 5 5 4 3 2
7 7 7 8 8 8 8 8 8 8 7 8 8 8 8 8 8 9 8 8 8 8 8 7 8 7 8 7 3 3 6 5 6 5 4 4 4 4
6 7 8 8 8 8 9 8 8 8 7 8 8 8 8 8 9 9 10 10 9 8 8 8 9 10 11 9 6 3 4 6 6 6 4 3 3 3
8 8 8 8 8 8 9 9 9 9 8 8 8 8 8 7 9 9 9 11 10 9 10 11 11 11 5 5 5 2 1 2 7 7 6 5 3 3
8 9 9 9 8 9 9 8 9 9 9 8 8 8 8 8 9 10 9 9 10 9 9 7 7 8 6 8 8 6 4 2 4 7 8 8 7 7
9 9 9 9 9 8 9 9 10 9 9 8 8 8 8 8 8 8 9 8 9 9 8 7 6 6 6 7 8 6 7 6 4 4 2 2 6 8
Wind_Direction
294 296 293 283 278 238 192 172 165 268 295 285 293 293 284 235 215 210 226 214 203 197 195 195 195 195 198 199 196 199 201 203 205 206 208 212 215 215
289 294 295 285 296 285 219 203 182 185 244 274 266 274 268 255 229 219 226 228 219 206 201 201 203 203 202 202 201 201 202 205 204 205 207 210 214 216
302 286 279 269 274 281 264 221 204 186 229 275 273 277 257 250 257 245 237 229 233 220 212 208 208 210 209 206 203 201 201 206 210 211 211 213 215 218
292 290 283 279 265 261 251 249 238 214 209 250 273 274 250 237 231 234 232 231 235 234 225 219 215 213 211 208 206 203 202 204 208 210 214 216 216 219
282 275 276 274 270 264 250 246 247 246 215 225 255 259 258 247 229 247 237 240 234 236 229 226 222 218 216 213 210 207 205 205 207 210 214 215 215 215
285 276 274 263 258 260 260 250 245 248 239 230 246 255 255 257 203 222 242 243 240 231 217 218 220 221 220 216 213 209 206 206 208 209 211 212 213 213
303 294 282 276 271 261 259 250 244 245 244 236 243 247 243 231 225 217 221 236 250 218 204 215 201 208 220 219 216 213 210 208 206 206 207 207 207 207
298 302 300 290 289 279 273 258 234 234 240 236 238 237 239 227 219 213 206 206 244 223 186 224 192 216 216 215 215 213 210 207 203 202 202 202 202 203
292 298 308 309 299 289 289 284 266 253 239 236 236 239 237 227 210 212 210 209 223 209 173 217 204 218 222 223 214 210 207 205 202 202 199 198 199 201
294 284 283 288 294 286 283 287 280 273 257 245 245 249 244 235 215 212 212 213 234 218 174 203 204 212 214 215 217 211 207 205 202 198 195 194 193 194
301 303 299 291 296 299 285 278 282 283 273 255 253 256 253 244 221 198 191 190 224 229 195 187 193 190 205 221 219 211 207 204 201 198 193 189 187 184
304 300 301 304 305 303 289 274 276 279 279 277 270 265 261 251 229 211 201 199 201 219 203 181 182 165 197 230 210 204 204 208 204 200 194 189 182 172
304 301 299 308 307 301 294 274 269 277 272 261 263 263 260 251 239 225 211 204 204 218 196 173 179 176 177 188 202 195 187 185 188 196 194 189 184 176
296 293 294 305 307 303 296 285 284 284 272 263 262 260 255 250 242 234 222 217 215 213 192 175 181 181 173 178 201 188 187 188 176 181 176 174 174 178
295 296 299 300 302 299 292 290 289 277 265 260 256 255 249 245 236 233 235 218 219 219 198 187 180 181 182 188 183 177 178 196 186 175 170 168 173 162
304 303 304 298 290 286 294 293 281 267 263 257 254 254 255 246 235 221 223 215 214 231 216 194 185 180 189 190 183 187 183 181 180 180 164 160 157 163
308 305 306 308 306 302 295 287 281 278 270 261 255 256 257 250 243 223 213 212 218 214 208 194 166 163 175 175 182 189 181 182 178 170 162 164 178 178
311 303 302 301 297 296 297 296 287 277 273 272 264 254 249 249 247 231 216 214 220 217 206 190 169 150 121 325 199 186 184 181 172 162 155 161 182 197
301 292 293 294 294 294 290 289 287 281 277 273 269 263 255 249 245 234 222 221 221 217 208 191 184 183 195 211 226 196 182 172 158 158 161 158 176 186
287 287 289 290 290 292 291 288 288 285 279 277 273 267 258 251 247 241 226 221 220 216 209 197 196 196 202 200 189 191 180 170 168 167 157 124 102 92
293 288 286 287 289 289 288 288 286 283 278 275 273 269 262 257 253 246 235 223 218 213 213 210 206 187 163 139 142 164 183 171 170 166 158 145 141 143
288 289 287 284 285 286 286 284 285 284 280 275 272 269 264 255 252 249 239 228 223 214 215 205 173 166 172 181 183 176 162 123 106 126 147 159 163 179
284 287 286 285 284 284 284 282 282 282 279 275 274 271 266 260 251 246 243 235 227 211 201 193 180 181 184 181 176 170 162 156 142 120 85 99 156 163
Height
1523 1522 1521 1520 1519 1518 1518 1517 1517 1515 1515 1514 1514 1514 1514 1514 1514 1515 1515 1516 1517 1519 1520 1522 1524 1525 1527 1529 1531 1532 1534 1536 1538 1540 1542 1543 1545 1547
1523 1522 1521 1520 1519 1518 1517 1516 1516 1515 1514 1513 1513 1513 1513 1513 1513 1513 1514 1514 1515 1516 1517 1519 1521 1522 1524 1526 1527 1529 1531 1533 1535 1537 1538 1540 1542 1543
1522 1521 1520 1519 1518 1517 1516 1515 1515 1514 1512 1512 1511 1511 1511 1511 1511 1511 1512 1512 1513 1514 1515 1516 1518 1519 1521 1523 1524 1526 1527 1529 1531 1533 1535 1536 1538 1540
1521 1520 1519 1518 1516 1515 1514 1513 1513 1512 1511 1509 1509 1509 1509 1509 1509 1509 1509 1509 1510 1511 1512 1513 1515 1516 1518 1519 1521 1522 1524 1525 1527 1529 1531 1532 1534 1535
1519 1518 1517 1516 1514 1513 1512 1511 1510 1509 1508 1507 1506 1506 1506 1506 1506 1506 1507 1507 1507 1508 1509 1510 1511 1513 1514 1515 1517 1518 1520 1521 1523 1525 1526 1528 1529 1531
1517 1515 1514 1513 1512 1510 1509 1508 1507 1506 1505 1504 1504 1503 1503 1503 1503 1503 1503 1504 1504 1505 1506 1507 1508 1509 1510 1511 1512 1514 1515 1517 1518 1520 1522 1523 1525 1526
1514 1513 1511 1510 1509 1508 1506 1505 1504 1503 1502 1501 1500 1500 1499 1499 1499 1500 1500 1500 1501 1501 1502 1503 1504 1505 1506 1507 1508 1509 1511 1513 1514 1516 1517 1519 1520 1522
1510 1509 1508 1507 1505 1504 1503 1501 1500 1499 1498 1497 1496 1496 1495 1495 1496 1496 1496 1497 1497 1498 1498 1499 1500 1500 1502 1503 1504 1505 1507 1508 1510 1511 1513 1514 1516 1517
1506 1505 1504 1502 1501 1499 1498 1497 1496 1495 1494 1493 1492 1491 1491 1491 1492 1491 1491 1492 1492 1493 1494 1494 1495 1496 1497 1498 1500 1501 1502 1503 1505 1506 1508 1509 1511 1512
1502 1500 1499 1497 1496 1495 1493 1491 1490 1489 1488 1487 1486 1486 1486 1486 1487 1487 1487 1488 1488 1489 1490 1490 1490 1491 1493 1494 1495 1496 1498 1499 1500 1501 1503 1504 1506 1507
1497 1496 1494 1492 1491 1489 1487 1485 1483 1482 1482 1481 1480 1480 1480 1480 1481 1482 1482 1482 1482 1483 1485 1486 1486 1487 1488 1489 1490 1492 1493 1494 1495 1497 1498 1500 1501 1502
1492 1490 1489 1487 1485 1483 1481 1479 1477 1475 1475 1473 1473 1473 1473 1473 1474 1475 1475 1476 1476 1477 1479 1480 1481 1482 1483 1484 1485 1487 1488 1489 1491 1492 1494 1495 1496 1498
1486 1484 1483 1481 1478 1477 1475 1473 1471 1469 1468 1467 1465 1465 1465 1466 1466 1468 1469 1470 1470 1471 1473 1475 1475 1477 1478 1479 1480 1482 1483 1485 1486 1488 1489 1491 1492 1494
1481 1479 1477 1474 1472 1470 1467 1465 1464 1462 1461 1459 1458 1457 1457 1458 1459 1460 1461 1462 1464 1465 1467 1469 1469 1471 1472 1473 1475 1476 1478 1480 1482 1483 1485 1486 1488 1489
1476 1473 1471 1468 1465 1462 1460 1458 1456 1454 1452 1451 1449 1449 1449 1450 1451 1452 1453 1454 1456 1458 1460 1462 1463 1465 1467 1468 1469 1471 1473 1475 1477 1479 1481 1482 1484 1485
1470 1467 1464 1461 1458 1455 1452 1450 1448 1446 1445 1443 1442 1442 1442 1442 1443 1444 1445 1446 1447 1449 1452 1455 1457 1459 1460 1462 1464 1465 1468 1470 1472 1474 1476 1478 1479 1481
1464 1460 1457 1453 1450 1447 1444 1442 1440 1438 1437 1436 1434 1433 1433 1433 1434 1435 1437 1438 1439 1441 1444 1447 1450 1452 1454 1456 1457 1459 1462 1464 1467 1469 1471 1473 1475 1477
1459 1454 1451 1447 1444 1440 1437 1434 1432 1430 1429 1427 1426 1425 1425 1424 1425 1426 1428 1429 1431 1433 1436 1439 1442 1445 1447 1449 1452 1453 1456 1458 1461 1464 1466 1468 1470 1472
1453 1449 1445 1441 1438 1434 1431 1428 1425 1423 1421 1419 1418 1417 1417 1416 1416 1417 1419 1421 1422 1425 1427 1430 1433 1436 1439 1441 1444 1448 1450 1453 1455 1458 1460 1463 1465 1468
1447 1443 1439 1435 1431 1428 1424 1421 1418 1415 1413 1412 1410 1409 1408 1408 1407 1408 1409 1411 1413 1416 1418 1421 1424 1427 1430 1434 1437 1441 1444 1447 1450 1452 1455 1458 1460 1463
1440 1436 1433 1429 1425 1421 1417 1414 1411 1408 1405 1403 1402 1401 1400 1399 1399 1399 1400 1402 1404 1407 1409 1411 1415 1421 1425 1429 1431 1434 1438 1441 1444 1447 1450 1452 1455 1457
1433 1429 1425 1421 1417 1413 1410 1406 1403 1400 1397 1395 1393 1392 1391 1391 1391 1391 1391 1393 1395 1398 1401 1404 1408 1412 1416 1419 1422 1427 1431 1435 1438 1442 1445 1447 1449 1451
1426 1421 1417 1413 1409 1405 1402 1398 1395 1392 1389 1386 1385 1383 1382 1382 1382 1383 1383 1384 1387 1389 1392 1396 1399 1403 1407 1411 1415 1420 1424 1428 1432 1435 1439 1442 1445 1447